[[{"header":{"parameterUnit":"m.s-1","parameterCategory":1,"la1":30.2991,"la2":30.254,"lo1":-89.0895,"lo2":-89.0444,"dy":0.0017,"dx":0.0017,"nx":28,"ny":28,"refTime":"2024-02-07T09:00:00:Z","depth":0,"parameterNumber":2,"parameterNumberName":"U-component_of_WINDS"},"data":[0,0,0,0,0,0,0,0,0,0,0,0,0,0,0,0,0,0,0,0,0,0,0,0,0,0,0,0,0,0,0,0,0,0,0,0,0,0,0,0,0,0,0,0,0,0,0,0,0,0,0,0,0,0,0,0,0,0,-1.0305,-1.0305,0,-1.0304,-1.0304,-1.0304,-1.0252,-1.0251,-1.025,-1.0248,-1.025,-1.0251,-1.0253,0,0,0,0,0,0,0,0,0,0,0,0,0,-1.0264,-1.0265,-1.0305,-1.0305,-1.0305,-1.0304,-1.0304,-1.0304,-1.0252,-1.0251,-1.0249,-1.0248,-1.025,-1.0251,-1.0253,0,0,0,0,0,0,0,0,0,0,0,0,0,-1.0274,-1.0265,-1.0305,-1.0279,-1.0277,-1.0304,-1.0304,-1.0304,-1.0253,-1.0251,-1.0249,-1.0247,-1.0249,-1.0251,-1.0253,-1.0305,0,0,-1.0259,-1.026,0,0,0,0,0,0,0,0,-1.0274,-1.0276,-1.0283,-1.0281,-1.0278,-1.0276,-1.029,-1.0304,-1.0253,-1.0262,-1.0248,-1.0246,-1.026,-1.0261,-1.0266,-1.0305,-1.0306,-1.0259,-1.026,-1.0261,-1.0262,0,0,0,0,0,0,0,-1.0273,-1.0276,-1.0304,-1.0283,-1.028,-1.0268,-1.0267,-1.0292,-1.0273,-1.0261,-1.0257,-1.0258,-1.0259,-1.0264,-1.0265,-1.0306,-1.0259,-1.0261,-1.0262,-1.0263,-1.0387,-1.0389,0,0,0,0,0,0,-1.0276,-1.0275,-1.0304,-1.0304,-1.0271,-1.027,-1.0269,-1.0279,-1.0272,-1.0269,-1.0259,-1.0255,-1.0262,-1.0263,-1.0265,-1.0326,-1.0261,-1.0263,-1.0264,-1.0385,-1.0388,-1.039,0,0,0,0,0,0,-1.0275,-1.0279,-1.0304,-1.0289,-1.0291,-1.0273,-1.0284,-1.028,-1.0285,-1.0271,-1.0267,-1.0268,-1.026,-1.0263,-1.0295,-1.0325,-1.0264,-1.0266,-1.0383,-1.0386,-1.0389,-1.0448,0,0,0,0,0,0,-1.0274,-1.0279,-1.0298,-1.0289,-1.0292,-1.0334,-1.0286,-1.0281,-1.0288,-1.0283,-1.0278,-1.0276,-1.0259,-1.0293,-1.0297,-1.0327,-1.0267,-1.038,-1.0384,-1.0388,-1.0443,-1.0452,-1.046,0,0,0,0,0,-1.0273,-1.0316,-1.0299,-1.0303,-1.0316,-1.0336,-1.0338,-1.0317,-1.0291,-1.031,-1.0301,-1.0276,-1.0321,-1.0297,-1.0301,-1.0332,-1.0378,-1.0383,-1.0388,-1.0439,-1.045,-1.046,0,0,0,0,0,0,-1.033,-1.0314,-1.0296,-1.0337,-1.0338,-1.0327,-1.0352,-1.033,-1.0339,-1.0333,-1.0308,-1.0307,-1.0344,-1.0341,-1.0314,-1.0381,-1.0345,-1.0351,-1.0382,-1.0393,-1.0402,-1.0402,-1.0269,0,0,0,0,0,-1.0347,-1.0364,-1.0349,-1.0387,-1.0389,-1.037,-1.0378,-1.0361,-1.0362,-1.0362,-1.0356,-1.0358,-1.0372,-1.0382,-1.0395,-1.0442,-1.044,-1.0465,-1.0474,-1.0481,-1.0487,-1.0511,-1.0521,-1.0406,-1.0406,-1.0406,0,0,-1.0383,-1.0377,-1.0389,-1.0399,-1.0397,-1.0416,-1.0371,-1.0393,-1.0406,-1.0366,-1.0396,-1.0391,-1.0392,-1.0432,-1.0449,-1.043,-1.0518,-1.0487,-1.0493,-1.0495,-1.0517,-1.0528,-1.0537,-1.0409,-1.0408,-1.0408,0,0,-1.0459,-1.0455,-1.0486,-1.0485,-1.0483,-1.047,-1.0478,-1.047,-1.0465,-1.0494,-1.0464,-1.048,-1.0506,-1.0507,-1.0511,-1.0585,-1.0562,-1.059,-1.0636,-1.066,-1.0669,-1.0677,-1.0703,-1.0713,-1.0595,-1.0595,-1.0596,0,-1.0505,-1.053,-1.0505,-1.0528,-1.0533,-1.0496,-1.0527,-1.0528,-1.0531,-1.0535,-1.0514,-1.0544,-1.0542,-1.0581,-1.0599,-1.0604,-1.0611,-1.0591,-1.0669,-1.0677,-1.0684,-1.0709,-1.0719,-1.0599,-1.0598,-1.0598,-1.0598,0,-1.0587,-1.0605,-1.063,-1.0632,-1.064,-1.0667,-1.0646,-1.0657,-1.0639,-1.0629,-1.0659,-1.0655,-1.0665,-1.0673,-1.0657,-1.071,-1.0698,-1.0674,-1.0636,-1.0699,-1.0722,-1.0731,-1.0604,-1.0603,-1.0602,-1.0601,0,0,-1.07,-1.0686,-1.0696,-1.0696,-1.069,-1.0704,-1.0729,-1.0738,-1.0748,-1.0751,-1.0772,-1.0793,-1.077,-1.0774,-1.0757,-1.0778,-1.0837,-1.0751,-1.075,-1.0767,-1.0895,-1.0914,-1.0925,-1.0821,-1.0822,-1.0824,-1.0895,0,-1.0773,-1.0814,-1.0791,-1.0837,-1.0853,-1.0817,-1.0839,-1.0838,-1.0828,-1.0841,-1.0831,-1.0846,-1.0814,-1.0816,-1.0835,-1.0826,-1.0862,-1.082,-1.084,-1.0841,-1.0842,-1.0937,-1.0958,-1.1025,-1.0904,-1.0905,-1.0906,0,-1.0864,-1.0869,-1.0915,-1.0905,-1.0911,-1.0931,-1.0937,-1.095,-1.0948,-1.0939,-1.0943,-1.0921,-1.0945,-1.0908,-1.0941,-1.0913,-1.0919,-1.0916,-1.0918,-1.092,-1.0878,-1.0942,-1.1046,-1.1056,-1.092,-1.0919,-1.0918,0,-1.0942,-1.0961,-1.099,-1.0991,-1.098,-1.0995,-1.0991,-1.0987,-1.0994,-1.0999,-1.1003,-1.1011,-1.1016,-1.1024,-1.1004,-1.0978,-1.104,-1.1001,-1.1034,-1.1034,-1.1049,-1.1049,-1.1156,-1.1053,-1.1053,-1.1053,-1.1052,0,-1.1027,-1.1057,-1.1025,-1.1044,-1.1075,-1.1049,-1.1081,-1.1074,-1.107,-1.1087,-1.1056,-1.1072,-1.1045,-1.1059,-1.1044,-1.1073,-1.1076,-1.107,-1.1066,-1.1073,-1.1074,-1.1078,-1.1073,-1.1055,-1.1055,-1.1054,-1.1054,0,-1.112,-1.11,-1.113,-1.1116,-1.1113,-1.1138,-1.1126,-1.1143,-1.113,-1.1151,-1.1155,-1.1136,-1.115,-1.1131,-1.1144,-1.1134,-1.1174,-1.1162,-1.1174,-1.1171,-1.1206,-1.1203,-1.132,-1.1334,-1.1221,-1.1222,-1.1223,0,-1.1176,-1.1197,-1.1185,-1.1193,-1.1191,-1.1205,-1.121,-1.1185,-1.1192,-1.119,-1.1207,-1.1219,-1.1227,-1.1251,-1.1239,-1.1248,-1.1237,-1.1277,-1.1239,-1.1245,-1.1238,-1.1237,-1.1239,-1.1286,-1.1287,-1.1288,-1.1289,0,-1.1276,-1.1265,-1.1274,-1.1279,-1.1287,-1.129,-1.1291,-1.13,-1.1273,-1.1283,-1.1296,-1.1302,-1.1314,-1.1326,-1.1332,-1.1328,-1.1305,-1.1301,-1.1309,-1.1318,-1.1324,-1.1321,-1.1197,-1.1299,-1.1298,-1.1297,-1.1297,-1.1296,-1.1353,-1.137,-1.1363,-1.1374,-1.1372,-1.1373,-1.1388,-1.1376,-1.1387,-1.1394,-1.1378,-1.1395,-1.1391,-1.1396,-1.1395,-1.1409,-1.1392,-1.1404,-1.1407,-1.141,-1.1415,-1.1321,-1.141,-1.141,-1.1409,-1.1409,-1.1409,0,-1.1452,-1.1445,-1.1455,-1.1457,-1.1466,-1.144,-1.144,-1.1449,-1.1464,-1.1462,-1.147,-1.1485,-1.1496,-1.1483,-1.1492,-1.1505,-1.1494,-1.1508,-1.1507,-1.1507,-1.143,-1.1422,-1.1517,-1.1517,-1.1517,-1.1517,-1.1517,-1.1517,-1.1505,-1.1532,-1.1519,-1.1545,-1.1539,-1.1554,-1.1556,-1.1557,-1.1555,-1.1573,-1.1581,-1.1573,-1.1566,-1.1574,-1.1583,-1.1579,-1.1584,-1.1602,-1.1594,-1.1523,-1.1512,-1.1502,-1.1495,-1.1603,-1.1603,-1.1669,-1.167,-1.167]},{"header":{"parameterUnit":"m.s-1","parameterCategory":1,"la1":30.2991,"la2":30.254,"lo1":-89.0895,"lo2":-89.0444,"dy":0.0017,"dx":0.0017,"nx":28,"ny":28,"refTime":"2024-02-07T09:00:00:Z","depth":0,"parameterNumber":3,"parameterNumberName":"V-component_of_WINDS"},"data":[0,0,0,0,0,0,0,0,0,0,0,0,0,0,0,0,0,0,0,0,0,0,0,0,0,0,0,0,0,0,0,0,0,0,0,0,0,0,0,0,0,0,0,0,0,0,0,0,0,0,0,0,0,0,0,0,0,0,-3.0495,-3.0495,0,-3.0563,-3.0564,-3.0565,-3.054,-3.0539,-3.0537,-3.0536,-3.0602,-3.0605,-3.0609,0,0,0,0,0,0,0,0,0,0,0,0,0,-3.0338,-3.0341,-3.0495,-3.0495,-3.0496,-3.0563,-3.0564,-3.0565,-3.0541,-3.0539,-3.0537,-3.0535,-3.0601,-3.0605,-3.0609,0,0,0,0,0,0,0,0,0,0,0,0,0,-3.0407,-3.0342,-3.0494,-3.0492,-3.0493,-3.0563,-3.0564,-3.0565,-3.0541,-3.0539,-3.0536,-3.0534,-3.06,-3.0605,-3.0609,-3.0685,0,0,-3.0624,-3.0626,0,0,0,0,0,0,0,0,-3.0403,-3.0412,-3.0492,-3.0493,-3.0493,-3.0541,-3.0533,-3.0605,-3.0542,-3.0523,-3.0536,-3.0533,-3.0584,-3.059,-3.0607,-3.0688,-3.0691,-3.0624,-3.0627,-3.0629,-3.0631,0,0,0,0,0,0,0,-3.0398,-3.0409,-3.0522,-3.0493,-3.0494,-3.0487,-3.0494,-3.0547,-3.0565,-3.0524,-3.0523,-3.0531,-3.0583,-3.0603,-3.0609,-3.0691,-3.0624,-3.0629,-3.0632,-3.0633,-3.0836,-3.0838,0,0,0,0,0,0,-3.0393,-3.0405,-3.0519,-3.0524,-3.0442,-3.0491,-3.0499,-3.0528,-3.0564,-3.0568,-3.0533,-3.053,-3.0596,-3.0603,-3.0611,-3.0701,-3.0629,-3.0634,-3.0637,-3.0833,-3.0836,-3.0839,0,0,0,0,0,0,-3.039,-3.0404,-3.0517,-3.0464,-3.0478,-3.0496,-3.0529,-3.053,-3.055,-3.0571,-3.0574,-3.055,-3.0594,-3.0604,-3.0666,-3.0703,-3.0636,-3.064,-3.083,-3.0834,-3.0838,-3.0881,0,0,0,0,0,0,-3.0386,-3.0403,-3.0433,-3.0465,-3.0481,-3.0572,-3.0531,-3.0533,-3.0558,-3.0555,-3.0587,-3.0591,-3.0593,-3.0659,-3.0671,-3.0708,-3.0644,-3.0827,-3.0832,-3.0836,-3.0876,-3.0886,-3.0894,0,0,0,0,0,-3.038,-3.0441,-3.0434,-3.0448,-3.0519,-3.0575,-3.0583,-3.0586,-3.0562,-3.0591,-3.0604,-3.059,-3.0697,-3.0666,-3.0679,-3.0718,-3.0825,-3.0831,-3.0836,-3.0873,-3.0884,-3.0894,0,0,0,0,0,0,-3.0411,-3.0446,-3.0438,-3.0512,-3.0541,-3.057,-3.0608,-3.0598,-3.0634,-3.0629,-3.063,-3.0637,-3.0701,-3.0716,-3.0681,-3.0792,-3.0757,-3.0765,-3.078,-3.0791,-3.08,-3.0795,-3.0648,0,0,0,0,0,-3.0427,-3.0471,-3.0498,-3.056,-3.0575,-3.0589,-3.0613,-3.0613,-3.0643,-3.0654,-3.0672,-3.07,-3.074,-3.0767,-3.0805,-3.0878,-3.0884,-3.0911,-3.092,-3.0927,-3.0934,-3.0973,-3.0985,-3.0858,-3.0857,-3.0857,0,0,-3.0459,-3.0484,-3.0511,-3.0567,-3.0589,-3.0634,-3.0599,-3.0648,-3.068,-3.0661,-3.0721,-3.0736,-3.0767,-3.0835,-3.0866,-3.0849,-3.0971,-3.0934,-3.094,-3.0943,-3.098,-3.0992,-3.1003,-3.0861,-3.0861,-3.086,0,0,-3.0541,-3.0564,-3.0618,-3.0642,-3.0676,-3.0685,-3.0698,-3.0729,-3.0738,-3.0799,-3.0786,-3.0823,-3.0893,-3.0915,-3.0936,-3.1025,-3.1012,-3.1038,-3.1083,-3.1121,-3.1131,-3.114,-3.1171,-3.1182,-3.1045,-3.1045,-3.1045,0,-3.0576,-3.0644,-3.0647,-3.0697,-3.0721,-3.0707,-3.0761,-3.0783,-3.0828,-3.0845,-3.0825,-3.0912,-3.0932,-3.1004,-3.1026,-3.1044,-3.1058,-3.1034,-3.1129,-3.1138,-3.1147,-3.1176,-3.1188,-3.1048,-3.1047,-3.1047,-3.1047,0,-3.0685,-3.0732,-3.0771,-3.0816,-3.0845,-3.0897,-3.0906,-3.0935,-3.0932,-3.0942,-3.1004,-3.1027,-3.1069,-3.1087,-3.1084,-3.1159,-3.1148,-3.1129,-3.1094,-3.1162,-3.1189,-3.1201,-3.1052,-3.1051,-3.105,-3.1049,0,0,-3.0788,-3.0834,-3.0848,-3.0868,-3.0906,-3.0941,-3.0991,-3.1034,-3.1058,-3.1089,-3.113,-3.1189,-3.1172,-3.1195,-3.1195,-3.1229,-3.1297,-3.1206,-3.1206,-3.1221,-3.138,-3.1393,-3.1407,-3.1289,-3.1291,-3.1293,-3.1377,0,-3.0872,-3.0962,-3.0966,-3.1047,-3.109,-3.1077,-3.1121,-3.1147,-3.1158,-3.1195,-3.1206,-3.1247,-3.1222,-3.1236,-3.1269,-3.1282,-3.1329,-3.1276,-3.1326,-3.1328,-3.1318,-3.1421,-3.1436,-3.1514,-3.1388,-3.139,-3.1391,0,-3.0982,-3.1018,-3.1103,-3.1134,-3.1152,-3.1191,-3.123,-3.1266,-3.1295,-3.1301,-3.1327,-3.1322,-3.1371,-3.1335,-3.1403,-3.1367,-3.1388,-3.1397,-3.14,-3.1404,-3.1363,-3.1428,-3.1539,-3.1551,-3.1409,-3.1407,-3.1406,0,-3.1047,-3.1117,-3.1177,-3.1194,-3.1232,-3.126,-3.1276,-3.1304,-3.1329,-3.1362,-3.1378,-3.1417,-3.1438,-3.1467,-3.1471,-3.1445,-3.1539,-3.1504,-3.1544,-3.1544,-3.1564,-3.1563,-3.168,-3.1579,-3.1579,-3.1578,-3.1578,0,-3.114,-3.1193,-3.1207,-3.1244,-3.1302,-3.1306,-3.1363,-3.1377,-3.1402,-3.144,-3.1431,-3.1467,-3.1471,-3.1508,-3.1512,-3.1567,-3.1576,-3.1581,-3.1581,-3.1582,-3.1581,-3.1595,-3.1589,-3.1581,-3.1581,-3.158,-3.158,0,-3.1223,-3.1235,-3.1299,-3.133,-3.1339,-3.138,-3.1405,-3.144,-3.145,-3.1499,-3.151,-3.1525,-3.1568,-3.1576,-3.1626,-3.1628,-3.1694,-3.1689,-3.1684,-3.1683,-3.1723,-3.1719,-3.1853,-3.187,-3.1758,-3.1759,-3.176,0,-3.1281,-3.1322,-3.1357,-3.1383,-3.1401,-3.1442,-3.1468,-3.1473,-3.15,-3.1536,-3.1566,-3.1608,-3.1642,-3.1711,-3.1725,-3.1763,-3.1758,-3.1803,-3.1764,-3.1763,-3.1758,-3.1755,-3.1759,-3.181,-3.1811,-3.1812,-3.1813,0,-3.1383,-3.1387,-3.1425,-3.1466,-3.1497,-3.1529,-3.1559,-3.158,-3.1588,-3.1619,-3.1663,-3.1689,-3.1741,-3.1782,-3.182,-3.1835,-3.1825,-3.1825,-3.1836,-3.1837,-3.1832,-3.1834,-3.1704,-3.1822,-3.1821,-3.182,-3.182,-3.1819,-3.1455,-3.149,-3.152,-3.1563,-3.1586,-3.1615,-3.1649,-3.1663,-3.17,-3.1744,-3.1744,-3.1792,-3.1819,-3.1869,-3.1887,-3.1923,-3.1909,-3.1926,-3.193,-3.1933,-3.1937,-3.1827,-3.193,-3.193,-3.193,-3.193,-3.193,0,-3.1556,-3.1575,-3.1614,-3.1657,-3.169,-3.1679,-3.1712,-3.174,-3.1783,-3.181,-3.1844,-3.1894,-3.1934,-3.1951,-3.199,-3.2016,-3.2012,-3.2026,-3.2024,-3.2027,-3.1948,-3.1934,-3.2028,-3.2028,-3.2028,-3.2028,-3.2028,-3.2028,-3.1612,-3.1671,-3.1678,-3.1748,-3.1766,-3.1814,-3.1833,-3.1859,-3.188,-3.1937,-3.1971,-3.1983,-3.2006,-3.2046,-3.2082,-3.2086,-3.21,-3.2116,-3.2118,-3.2043,-3.2033,-3.2023,-3.201,-3.2119,-3.2119,-3.2194,-3.2195,-3.2195]}]]